Вернуться в каталог

STARLINK-1641

АктивенСвязьVLEO
NORAD 46174·PAYLOAD·🇺🇸 United States

Запущен Aug 18, 2020 с Cape Canaveral Space Force Station

Loading…

Ближайшие Пролёты (ближайшие 24 часа)

TLE

СвежийSource: CelesTrak SupGP

Эпоха: Sep 14, 2026, 22:10 UTC

1 46174C 20057BK  26257.92409722  .00251470  00000+0  10318-2 0  2573
2 46174  53.0365  77.9440 0002708 213.1242 287.1586 15.85165619    14

Отслеживайте STARLINK-1641 в реальном времени с AllMySat

Download on the App Store